Location: Unspecified
(0.0000°N, 0.0000°E)
Time: 05:14:04
(UTC+00:00)

KAITUO 1B - Pass Details

Date: 09 July 2020
Orbit: 493 x 515 km, 97.4° (Epoch: 13 August)

Event Time Altitude Azimuth Distance (km) Brightness Sun altitude
Rises 05:18:54 0° 37° (NE) 2,591 ? -10.7°
Reaches altitude 10° 05:21:28 10° 56° (NE) 1,706 ? -10.1°
Maximum altitude 05:24:03 18° 101° (E) 1,266 ? -9.5°
Drops below altitude 10° 05:26:39 10° 146° (SSE) 1,703 ? -8.9°
Sets 05:29:11 0° 165° (SSE) 2,585 ? -8.4°
